Rochester, MN
on Monday, September 9, 2013

Monday
Previous Day Next Day
Daily Summary
 ActualAverageRecord
Temperature
Mean Temperature °F 64°F  
Max Temperature 92°F 74°F 97°F (1955)
Min Temperature 67°F 54°F 37°F (1969)
Degree Days
Heating Degree Days 0 4  
Month to date heating degree days 13 25  
Since 1 July heating degree days 47 63  
Cooling Degree Days 15 2  
Month to date cooling degree days 59 26  
Year to date cooling degree days 615 551  
Growing Degree Days28 (Base °F )  
Moisture
Dew Point 66°F   
Average Humidity 68    
Maximum Humidity 97    
Minimum Humidity 38    
Precipitation
Precipitation 0.00 in 0.13 in 1.54 in (1971)
Month to date precipitation 0.01 1.10  
Year to date precipitation 34.71 25.29  
Snow
Snow 0.00 in 0.00 in 0.00 in (2012)
Month to date snowfall 0.0 0.0  
Since 1 July snowfall 0.0 0.0  
Snow Depth 0.00 in   
Wind
Wind Speed 12 mph   
Max Wind Speed 24 mph   
Max Gust Speed 30 mph   
Visibility 6 miles   
Events     

Key: T is trace of precipitation, MM is missing value
Source: NWS Daily Summary
Time(CDT)TemperatureDew PointHumidity Pressure Visibility Wind DirectionWind SpeedGust SpeedPrecipitationEvents Conditions
12:14 AM 68.0°F 64.4°F 88% 29.92 in 9.0 miles SE 10.4 mph - N/A   Overcast
12:21 AM 68.0°F 64.4°F 88% 29.92 in 9.0 miles SE 11.5 mph - N/A   Overcast
12:54 AM 68.0°F 64.0°F 87% 29.90 in 8.0 miles SE 9.2 mph - N/A   Overcast
1:54 AM 66.9°F 64.0°F 90% 29.88 in 7.0 miles SE 9.2 mph - N/A   Scattered Clouds
2:04 AM 66.2°F 64.4°F 94% 29.90 in 7.0 miles SE 9.2 mph - N/A   Mostly Cloudy
2:36 AM 68.0°F 64.4°F 88% 29.89 in 6.0 miles SE 9.2 mph - N/A   Overcast
2:54 AM 68.0°F 64.9°F 90% 29.88 in 6.0 miles SE 9.2 mph - N/A   Overcast
3:54 AM 69.1°F 66.0°F 90% 29.86 in 5.0 miles SSE 9.2 mph - N/A   Overcast
4:54 AM 69.1°F 66.0°F 90% 29.84 in 4.0 miles SE 6.9 mph - N/A   Overcast
5:12 AM 69.8°F 66.2°F 88% 29.86 in 3.0 miles SE 5.8 mph - N/A   Overcast
5:54 AM 69.1°F 66.0°F 90% 29.85 in 3.0 miles SSE 8.1 mph - N/A   Overcast
6:54 AM 69.1°F 66.0°F 90% 29.83 in 2.5 miles SSE 10.4 mph - N/A   Overcast
7:47 AM 69.8°F 66.2°F 88% 29.84 in 1.2 miles SSE 10.4 mph - N/A   Overcast
7:54 AM 69.1°F 66.9°F 93% 29.83 in 1.2 miles SSE 6.9 mph - N/A   Overcast
8:54 AM 70.0°F 68.0°F 93% 29.83 in 1.2 miles South 8.1 mph - N/A   Overcast
9:35 AM 71.6°F 68.0°F 88% 29.82 in 1.8 miles South 13.8 mph - N/A   Overcast
9:46 AM 71.6°F 68.0°F 88% 29.82 in 2.5 miles SSE 10.4 mph - N/A   Overcast
9:54 AM 71.1°F 68.0°F 90% 29.81 in 2.5 miles South 10.4 mph 17.3 mph N/A   Overcast
10:22 AM 71.6°F 68.0°F 88% 29.82 in 3.0 miles South 11.5 mph - N/A   Overcast
10:38 AM 73.4°F 69.8°F 88% 29.82 in 3.0 miles South 11.5 mph - N/A   Haze
10:54 AM 75.0°F 69.1°F 82% 29.80 in 4.0 miles SSE 12.7 mph - N/A   Haze
11:19 AM 75.2°F 69.8°F 83% 29.80 in 5.0 miles South 10.4 mph - N/A   Haze
11:54 AM 82.0°F 71.1°F 69% 29.76 in 7.0 miles South 11.5 mph 19.6 mph N/A   Clear
12:54 PM 87.1°F 70.0°F 57% 29.73 in 9.0 miles South 13.8 mph 20.7 mph N/A   Clear
1:54 PM 88.0°F 70.0°F 55% 29.73 in 9.0 miles South 17.3 mph - N/A   Clear
2:54 PM 90.0°F 70.0°F 52% 29.71 in 9.0 miles South 16.1 mph 29.9 mph N/A   Clear
3:54 PM 91.9°F 70.0°F 48% 29.70 in 10.0 miles SSW 20.7 mph 27.6 mph N/A   Clear
4:54 PM 90.0°F 68.0°F 48% 29.69 in 10.0 miles SSW 16.1 mph 25.3 mph N/A   Clear
5:54 PM 91.9°F 66.9°F 44% 29.69 in 10.0 miles SSW 17.3 mph 24.2 mph N/A   Clear
6:54 PM 89.1°F 61.0°F 39% 29.70 in 10.0 miles SSW 16.1 mph 26.5 mph N/A   Clear
7:54 PM 86.0°F 61.0°F 43% 29.72 in 10.0 miles SSW 15.0 mph 21.9 mph N/A   Clear
8:54 PM 84.0°F 61.0°F 46% 29.75 in 10.0 miles SW 13.8 mph - N/A   Clear
9:54 PM 81.0°F 61.0°F 50% 29.77 in 10.0 miles SW 11.5 mph - N/A   Clear
10:54 PM 77.0°F 62.1°F 60% 29.79 in 10.0 miles WSW 9.2 mph - N/A   Clear
11:54 PM 79.0°F 62.1°F 56% 29.78 in 10.0 miles SW 12.7 mph - N/A   Clear
Astronomy
Sunrise:06:42 AM (CDT) Moon Rise:11:15 AM (CDT)9/9
Sunset:07:30 PM (CDT) Moon Set:09:36 PM (CDT)9/9
Moon Phase
Sep. 09 Sep. 12 Sep. 19 Sep. 27 Oct. 05

Copyright © 2016 The Weather Underground, Inc.